Zurück zum Katalog

INTELSAT 33E DEB

AktivMEO
NORAD 61990·DEBRIS· XX

Gestartet Aug 24, 2016 von Guiana Space Centre

Loading…

Nächste Überflüge (nächste 24 Stunden)

TLE

AktuellSource: Space-Track

Epoche: Sep 13, 2026, 08:20 UTC

1 61990U 16053G   26256.34772299 -.00000252  00000-0  00000-0 0  9994
2 61990   1.6819  75.2504 0114228 347.0838  13.4554  1.01392814  7048

Verfolge INTELSAT 33E DEB in Echtzeit mit AllMySat

Download on the App Store